Location: Unspecified
(0.0000°N, 0.0000°E)
Time: 11:05:44
(UTC+00:00)

STARLINK-4355 - Pass Details

Date: 31 October 2025
Orbit: 548 x 551 km, 97.6° (Epoch: 29 March)

Event Time Altitude Azimuth Distance (km) Brightness Sun altitude
Rises 17:54:11 0° 357° (N) 2,703 7.0 -2.6°
Reaches altitude 10° 17:56:25 10° 348° (NNW) 1,813 6.3 -3.1°
Maximum altitude 18:00:00 35° 281° (WNW) 893 5.5 -4.0°
Drops below altitude 10° 18:03:37 10° 215° (SW) 1,820 7.1 -4.8°
Sets 18:05:52 0° 206° (SSW) 2,715 7.8 -5.4°
